contact:dominique.lefevre@mio.osupytheas.fr, maurice.libes@osupytheas.fr, didier.mallarino@osupytheas.fr
Project:EMSO http://www.emso-fr.org/EMSO-France
Depth: 2436.0 m
Title:EMSO Ligure Ouest : Data MII capteur OXYGEN
DateTime,Latitude,Longitude,Optode-Type,Optode_Serial,Oxygen,Saturation_Oxygen,Temperature
DateTime,Latitude,Longitude,Optode-Type,Optode_Serial,µmol.l-1,%,degC
2019-07-24T00:02:39,42.805,6.029,4330,1995,192.197,58.780,13.290
2019-07-24T00:05:39,42.805,6.029,4330,1995,192.226,58.789,13.291
2019-07-24T00:08:39,42.805,6.029,4330,1995,192.134,58.759,13.290
2019-07-24T00:11:39,42.805,6.029,4330,1995,192.240,58.793,13.291
2019-07-24T00:14:39,42.805,6.029,4330,1995,192.230,58.790,13.291
2019-07-24T00:17:39,42.805,6.029,4330,1995,192.207,58.785,13.292
2019-07-24T00:20:39,42.805,6.029,4330,1995,192.225,58.791,13.293
2019-07-24T00:23:39,42.805,6.029,4330,1995,192.194,58.778,13.290
2019-07-24T00:26:39,42.805,6.029,4330,1995,192.219,58.786,13.290
2019-07-24T00:29:39,42.805,6.029,4330,1995,192.202,58.783,13.292
2019-07-24T00:32:39,42.805,6.029,4330,1995,192.221,58.788,13.292
2019-07-24T00:35:39,42.805,6.029,4330,1995,192.216,58.786,13.291
2019-07-24T00:38:39,42.805,6.029,4330,1995,192.160,58.771,13.292
2019-07-24T00:41:39,42.805,6.029,4330,1995,192.224,58.789,13.291
2019-07-24T00:44:39,42.805,6.029,4330,1995,192.200,58.782,13.292
2019-07-24T00:47:39,42.805,6.029,4330,1995,192.260,58.798,13.290
2019-07-24T00:50:39,42.805,6.029,4330,1995,192.198,58.781,13.291
2019-07-24T00:53:39,42.805,6.029,4330,1995,192.215,58.784,13.290
2019-07-24T00:56:39,42.805,6.029,4330,1995,192.236,58.791,13.290
2019-07-24T00:59:39,42.805,6.029,4330,1995,192.202,58.781,13.290
2019-07-24T01:02:39,42.805,6.029,4330,1995,192.243,58.794,13.291
2019-07-24T01:05:39,42.805,6.029,4330,1995,192.239,58.792,13.290
2019-07-24T01:08:39,42.805,6.029,4330,1995,192.266,58.800,13.290
2019-07-24T01:11:39,42.805,6.029,4330,1995,192.255,58.796,13.289
2019-07-24T01:14:39,42.805,6.029,4330,1995,192.218,58.785,13.290
2019-07-24T01:17:39,42.805,6.029,4330,1995,192.168,58.770,13.290
2019-07-24T01:20:39,42.805,6.029,4330,1995,192.155,58.766,13.290
2019-07-24T01:23:39,42.805,6.029,4330,1995,192.154,58.766,13.290
2019-07-24T01:26:39,42.805,6.029,4330,1995,192.206,58.781,13.290
2019-07-24T01:29:39,42.805,6.029,4330,1995,192.193,58.778,13.290
2019-07-24T01:32:39,42.805,6.029,4330,1995,192.200,58.779,13.289
2019-07-24T01:35:39,42.805,6.029,4330,1995,192.159,58.767,13.290
2019-07-24T01:38:39,42.805,6.029,4330,1995,192.148,58.764,13.289
2019-07-24T01:41:39,42.805,6.029,4330,1995,192.239,58.790,13.289
2019-07-24T01:44:39,42.805,6.029,4330,1995,192.153,58.766,13.290
2019-07-24T01:47:39,42.805,6.029,4330,1995,192.178,58.772,13.289
2019-07-24T01:50:39,42.805,6.029,4330,1995,192.204,58.780,13.289
2019-07-24T01:53:39,42.805,6.029,4330,1995,192.221,58.786,13.290
2019-07-24T01:56:39,42.805,6.029,4330,1995,192.133,58.759,13.289
2019-07-24T01:59:39,42.805,6.029,4330,1995,192.191,58.776,13.289
2019-07-24T02:02:39,42.805,6.029,4330,1995,192.234,58.790,13.290
2019-07-24T02:05:39,42.805,6.029,4330,1995,192.196,58.779,13.290
2019-07-24T02:08:39,42.805,6.029,4330,1995,192.226,58.788,13.290
2019-07-24T02:11:39,42.805,6.029,4330,1995,192.192,58.778,13.290
2019-07-24T02:14:39,42.805,6.029,4330,1995,192.234,58.791,13.290
2019-07-24T02:20:39,42.805,6.029,4330,1995,192.222,58.786,13.290
2019-07-24T02:23:39,42.805,6.029,4330,1995,192.147,58.762,13.289
2019-07-24T02:26:39,42.805,6.029,4330,1995,192.217,58.784,13.289
2019-07-24T02:29:39,42.805,6.029,4330,1995,192.218,58.784,13.289
2019-07-24T02:32:39,42.805,6.029,4330,1995,192.150,58.764,13.289
2019-07-24T02:35:39,42.805,6.029,4330,1995,192.202,58.780,13.290
2019-07-24T02:38:39,42.805,6.029,4330,1995,192.165,58.768,13.289
2019-07-24T02:41:39,42.805,6.029,4330,1995,192.236,58.790,13.289
2019-07-24T02:44:39,42.805,6.029,4330,1995,192.214,58.784,13.290
2019-07-24T02:47:39,42.805,6.029,4330,1995,192.166,58.769,13.289
2019-07-24T02:50:39,42.805,6.029,4330,1995,192.187,58.776,13.290
2019-07-24T02:53:39,42.805,6.029,4330,1995,192.158,58.766,13.289
2019-07-24T02:56:39,42.805,6.029,4330,1995,192.146,58.763,13.290
2019-07-24T02:59:39,42.805,6.029,4330,1995,192.200,58.780,13.290
2019-07-24T03:02:39,42.805,6.029,4330,1995,192.230,58.790,13.290
2019-07-24T03:05:39,42.805,6.029,4330,1995,192.199,58.779,13.290
2019-07-24T03:08:39,42.805,6.029,4330,1995,192.073,58.740,13.289
2019-07-24T03:11:39,42.805,6.029,4330,1995,192.168,58.770,13.289
2019-07-24T03:14:39,42.805,6.029,4330,1995,192.249,58.795,13.290
2019-07-24T03:17:39,42.805,6.029,4330,1995,192.155,58.767,13.290
2019-07-24T03:20:39,42.805,6.029,4330,1995,192.182,58.776,13.291
2019-07-24T03:23:39,42.805,6.029,4330,1995,192.068,58.741,13.291
2019-07-24T03:26:39,42.805,6.029,4330,1995,192.055,58.736,13.290
2019-07-24T03:29:39,42.805,6.029,4330,1995,192.119,58.755,13.290
2019-07-24T03:32:39,42.805,6.029,4330,1995,192.177,58.773,13.290
2019-07-24T03:35:39,42.805,6.029,4330,1995,192.120,58.756,13.290
2019-07-24T03:38:39,42.805,6.029,4330,1995,192.132,58.759,13.290
2019-07-24T03:41:39,42.805,6.029,4330,1995,192.053,58.736,13.291
2019-07-24T03:44:39,42.805,6.029,4330,1995,192.172,58.772,13.291
2019-07-24T03:47:39,42.805,6.029,4330,1995,192.216,58.786,13.291
2019-07-24T03:50:39,42.805,6.029,4330,1995,192.227,58.791,13.292
2019-07-24T03:53:39,42.805,6.029,4330,1995,192.082,58.746,13.291
2019-07-24T03:56:39,42.805,6.029,4330,1995,192.144,58.765,13.292
2019-07-24T03:59:39,42.805,6.029,4330,1995,192.170,58.773,13.291
2019-07-24T04:02:39,42.805,6.029,4330,1995,192.146,58.766,13.292
2019-07-24T04:05:39,42.805,6.029,4330,1995,192.120,58.757,13.291
2019-07-24T04:08:39,42.805,6.029,4330,1995,192.144,58.765,13.291
2019-07-24T04:11:39,42.805,6.029,4330,1995,192.059,58.739,13.292
2019-07-24T04:14:39,42.805,6.029,4330,1995,192.076,58.743,13.291
2019-07-24T04:17:39,42.805,6.029,4330,1995,192.117,58.756,13.291
2019-07-24T04:20:39,42.805,6.029,4330,1995,192.085,58.746,13.291
2019-07-24T04:23:39,42.805,6.029,4330,1995,192.088,58.747,13.291
2019-07-24T04:26:39,42.805,6.029,4330,1995,192.106,58.753,13.291
2019-07-24T04:29:39,42.805,6.029,4330,1995,192.123,58.757,13.291
2019-07-24T04:32:39,42.805,6.029,4330,1995,192.063,58.739,13.291
2019-07-24T04:35:39,42.805,6.029,4330,1995,192.053,58.735,13.290
2019-07-24T04:38:39,42.805,6.029,4330,1995,192.068,58.742,13.292
2019-07-24T04:41:39,42.805,6.029,4330,1995,192.024,58.726,13.290
2019-07-24T04:44:39,42.805,6.029,4330,1995,192.114,58.753,13.289
2019-07-24T04:47:39,42.805,6.029,4330,1995,192.104,58.750,13.289
2019-07-24T04:50:39,42.805,6.029,4330,1995,192.097,58.748,13.289
2019-07-24T04:56:39,42.805,6.029,4330,1995,192.092,58.744,13.288
2019-07-24T04:59:39,42.805,6.029,4330,1995,192.051,58.735,13.291
2019-07-24T05:02:39,42.805,6.029,4330,1995,192.026,58.730,13.292
2019-07-24T05:05:39,42.805,6.029,4330,1995,192.055,58.736,13.290
2019-07-24T05:08:39,42.805,6.029,4330,1995,192.093,58.750,13.292
2019-07-24T05:11:39,42.805,6.029,4330,1995,192.049,58.735,13.291
2019-07-24T05:14:39,42.805,6.029,4330,1995,192.083,58.746,13.291
2019-07-24T05:17:39,42.805,6.029,4330,1995,192.025,58.729,13.292
2019-07-24T05:20:39,42.805,6.029,4330,1995,192.107,58.752,13.290
2019-07-24T05:23:39,42.805,6.029,4330,1995,192.086,58.747,13.292
2019-07-24T05:26:39,42.805,6.029,4330,1995,192.074,58.743,13.291
2019-07-24T05:29:39,42.805,6.029,4330,1995,192.084,58.745,13.291
2019-07-24T05:32:39,42.805,6.029,4330,1995,192.092,58.747,13.290
2019-07-24T05:35:39,42.805,6.029,4330,1995,192.071,58.741,13.291
2019-07-24T05:38:39,42.805,6.029,4330,1995,192.166,58.769,13.290
2019-07-24T05:41:39,42.805,6.029,4330,1995,192.155,58.767,13.291
2019-07-24T05:44:39,42.805,6.029,4330,1995,192.110,58.752,13.290
2019-07-24T05:47:39,42.805,6.029,4330,1995,192.160,58.767,13.289
2019-07-24T05:50:39,42.805,6.029,4330,1995,192.131,58.757,13.289
2019-07-24T05:53:39,42.805,6.029,4330,1995,192.170,58.771,13.290
2019-07-24T05:56:39,42.805,6.029,4330,1995,192.083,58.744,13.290
2019-07-24T05:59:39,42.805,6.029,4330,1995,192.072,58.740,13.289
2019-07-24T06:02:39,42.805,6.029,4330,1995,192.170,58.770,13.289
2019-07-24T06:05:39,42.805,6.029,4330,1995,192.177,58.772,13.289
2019-07-24T06:08:39,42.805,6.029,4330,1995,192.179,58.773,13.289
2019-07-24T06:11:39,42.805,6.029,4330,1995,192.150,58.764,13.290
2019-07-24T06:14:39,42.805,6.029,4330,1995,192.168,58.769,13.289
2019-07-24T06:17:39,42.805,6.029,4330,1995,192.209,58.782,13.290
2019-07-24T06:20:39,42.805,6.029,4330,1995,192.213,58.784,13.290
2019-07-24T06:23:39,42.805,6.029,4330,1995,192.132,58.759,13.290
2019-07-24T06:26:39,42.805,6.029,4330,1995,192.183,58.774,13.289
2019-07-24T06:29:39,42.805,6.029,4330,1995,192.152,58.765,13.289
2019-07-24T06:32:39,42.805,6.029,4330,1995,192.131,58.759,13.290
2019-07-24T06:35:39,42.805,6.029,4330,1995,192.124,58.758,13.291
2019-07-24T06:38:39,42.805,6.029,4330,1995,192.133,58.759,13.290
2019-07-24T06:41:39,42.805,6.029,4330,1995,192.144,58.763,13.290
2019-07-24T06:44:39,42.805,6.029,4330,1995,192.162,58.769,13.290
2019-07-24T06:47:39,42.805,6.029,4330,1995,192.188,58.776,13.290
2019-07-24T06:50:39,42.805,6.029,4330,1995,192.179,58.774,13.290
2019-07-24T06:53:39,42.805,6.029,4330,1995,192.183,58.775,13.290
2019-07-24T06:56:39,42.805,6.029,4330,1995,192.182,58.775,13.290
2019-07-24T06:59:39,42.805,6.029,4330,1995,192.220,58.785,13.289
2019-07-24T07:02:39,42.805,6.029,4330,1995,192.206,58.784,13.291
2019-07-24T07:05:39,42.805,6.029,4330,1995,192.219,58.788,13.291
2019-07-24T07:08:39,42.805,6.029,4330,1995,192.189,58.778,13.291
2019-07-24T07:11:39,42.805,6.029,4330,1995,192.176,58.774,13.291
2019-07-24T07:14:39,42.805,6.029,4330,1995,192.156,58.768,13.291
2019-07-24T07:17:39,42.805,6.029,4330,1995,192.152,58.766,13.290
2019-07-24T07:20:39,42.805,6.029,4330,1995,192.194,58.779,13.290
2019-07-24T07:23:39,42.805,6.029,4330,1995,192.158,58.768,13.290
2019-07-24T07:32:39,42.805,6.029,4330,1995,192.233,58.787,13.288
2019-07-24T07:35:39,42.805,6.029,4330,1995,192.154,58.765,13.290
2019-07-24T07:38:39,42.805,6.029,4330,1995,192.167,58.770,13.290
2019-07-24T07:41:39,42.805,6.029,4330,1995,192.153,58.768,13.292
2019-07-24T07:44:39,42.805,6.029,4330,1995,192.155,58.767,13.290
2019-07-24T07:47:39,42.805,6.029,4330,1995,192.202,58.781,13.290
2019-07-24T07:50:39,42.805,6.029,4330,1995,192.224,58.787,13.290
2019-07-24T07:53:39,42.805,6.029,4330,1995,192.187,58.777,13.291
2019-07-24T07:56:39,42.805,6.029,4330,1995,192.204,58.782,13.290
2019-07-24T07:59:39,42.805,6.029,4330,1995,192.195,58.780,13.291
2019-07-24T08:02:39,42.805,6.029,4330,1995,192.176,58.775,13.292
2019-07-24T08:05:39,42.805,6.029,4330,1995,192.146,58.765,13.291
2019-07-24T08:08:39,42.805,6.029,4330,1995,192.224,58.790,13.292
2019-07-24T08:11:39,42.805,6.029,4330,1995,192.186,58.777,13.291
2019-07-24T08:14:39,42.805,6.029,4330,1995,192.218,58.787,13.291
2019-07-24T08:17:39,42.805,6.029,4330,1995,192.210,58.784,13.290
2019-07-24T08:20:39,42.805,6.029,4330,1995,192.190,58.781,13.293
2019-07-24T08:23:39,42.805,6.029,4330,1995,192.175,58.776,13.293
2019-07-24T08:26:39,42.805,6.029,4330,1995,192.181,58.777,13.292
2019-07-24T08:29:39,42.805,6.029,4330,1995,192.175,58.774,13.291
2019-07-24T08:32:39,42.805,6.029,4330,1995,192.155,58.768,13.291
2019-07-24T08:35:39,42.805,6.029,4330,1995,192.197,58.781,13.291
2019-07-24T08:38:39,42.805,6.029,4330,1995,192.175,58.774,13.291
2019-07-24T08:41:39,42.805,6.029,4330,1995,192.200,58.782,13.291
2019-07-24T08:44:39,42.805,6.029,4330,1995,192.134,58.761,13.291
2019-07-24T08:47:39,42.805,6.029,4330,1995,192.185,58.777,13.291
2019-07-24T08:50:39,42.805,6.029,4330,1995,192.191,58.777,13.290
2019-07-24T08:53:39,42.805,6.029,4330,1995,192.138,58.763,13.292
2019-07-24T08:56:39,42.805,6.029,4330,1995,192.171,58.771,13.290
2019-07-24T08:59:39,42.805,6.029,4330,1995,192.254,58.796,13.289
2019-07-24T09:02:39,42.805,6.029,4330,1995,192.285,58.805,13.289
2019-07-24T09:05:39,42.805,6.029,4330,1995,192.249,58.794,13.289
2019-07-24T09:08:39,42.805,6.029,4330,1995,192.252,58.796,13.290
2019-07-24T09:11:39,42.805,6.029,4330,1995,192.290,58.806,13.289
2019-07-24T09:14:39,42.805,6.029,4330,1995,192.269,58.801,13.290
2019-07-24T09:17:39,42.805,6.029,4330,1995,192.323,58.817,13.290
2019-07-24T09:20:39,42.805,6.029,4330,1995,192.299,58.810,13.290
2019-07-24T09:23:39,42.805,6.029,4330,1995,192.279,58.804,13.290
2019-07-24T09:26:39,42.805,6.029,4330,1995,192.380,58.834,13.289
2019-07-24T09:29:39,42.805,6.029,4330,1995,192.399,58.841,13.290
2019-07-24T09:32:39,42.805,6.029,4330,1995,192.393,58.838,13.289
2019-07-24T09:35:39,42.805,6.029,4330,1995,192.360,58.828,13.289
2019-07-24T09:38:39,42.805,6.029,4330,1995,192.414,58.847,13.291
2019-07-24T09:41:39,42.805,6.029,4330,1995,192.431,58.850,13.290
2019-07-24T09:44:39,42.805,6.029,4330,1995,192.447,58.855,13.290
2019-07-24T09:47:39,42.805,6.029,4330,1995,192.421,58.850,13.292
2019-07-24T09:50:39,42.805,6.029,4330,1995,192.487,58.867,13.290
2019-07-24T09:53:39,42.805,6.029,4330,1995,192.530,58.881,13.290
2019-07-24T09:56:39,42.805,6.029,4330,1995,192.441,58.854,13.290
2019-07-24T09:59:39,42.805,6.029,4330,1995,192.543,58.885,13.290
2019-07-24T10:05:39,42.805,6.029,4330,1995,192.437,58.851,13.289
2019-07-24T10:08:39,42.805,6.029,4330,1995,192.442,58.852,13.288
2019-07-24T10:11:39,42.805,6.029,4330,1995,192.485,58.867,13.290
2019-07-24T10:14:39,42.805,6.029,4330,1995,192.563,58.891,13.290
2019-07-24T10:17:39,42.805,6.029,4330,1995,192.483,58.867,13.290
2019-07-24T10:20:39,42.805,6.029,4330,1995,192.379,58.835,13.290
2019-07-24T10:23:39,42.805,6.029,4330,1995,192.419,58.846,13.289
2019-07-24T10:26:39,42.805,6.029,4330,1995,192.482,58.866,13.289
2019-07-24T10:29:39,42.805,6.029,4330,1995,192.460,58.860,13.290
2019-07-24T10:32:39,42.805,6.029,4330,1995,192.424,58.848,13.290
2019-07-24T10:35:39,42.805,6.029,4330,1995,192.412,58.846,13.291
2019-07-24T10:38:39,42.805,6.029,4330,1995,192.409,58.844,13.290
2019-07-24T10:41:39,42.805,6.029,4330,1995,192.530,58.882,13.290
2019-07-24T10:44:39,42.805,6.029,4330,1995,192.437,58.853,13.290
2019-07-24T10:47:39,42.805,6.029,4330,1995,192.481,58.867,13.290
2019-07-24T10:50:39,42.805,6.029,4330,1995,192.526,58.880,13.290
2019-07-24T10:53:39,42.805,6.029,4330,1995,192.461,58.861,13.291
2019-07-24T10:56:39,42.805,6.029,4330,1995,192.468,58.863,13.291
2019-07-24T10:59:39,42.805,6.029,4330,1995,192.450,58.858,13.291
2019-07-24T11:02:39,42.805,6.029,4330,1995,192.431,58.852,13.291
2019-07-24T11:05:39,42.805,6.029,4330,1995,192.483,58.867,13.290
2019-07-24T11:08:39,42.805,6.029,4330,1995,192.506,58.874,13.290
2019-07-24T11:11:39,42.805,6.029,4330,1995,192.499,58.872,13.290
2019-07-24T11:14:39,42.805,6.029,4330,1995,192.618,58.908,13.290
2019-07-24T11:17:39,42.805,6.029,4330,1995,192.584,58.900,13.292
2019-07-24T11:20:39,42.805,6.029,4330,1995,192.552,58.890,13.292
2019-07-24T11:23:39,42.805,6.029,4330,1995,192.583,58.897,13.290
2019-07-24T11:26:39,42.805,6.029,4330,1995,192.533,58.883,13.291
2019-07-24T11:29:39,42.805,6.029,4330,1995,192.586,58.900,13.292
2019-07-24T11:32:39,42.805,6.029,4330,1995,192.560,58.893,13.293
2019-07-24T11:35:39,42.805,6.029,4330,1995,192.566,58.895,13.292
2019-07-24T11:38:39,42.805,6.029,4330,1995,192.592,58.902,13.292
2019-07-24T11:41:39,42.805,6.029,4330,1995,192.507,58.876,13.292
2019-07-24T11:44:39,42.805,6.029,4330,1995,192.596,58.904,13.293
2019-07-24T11:47:39,42.805,6.029,4330,1995,192.524,58.881,13.292
2019-07-24T11:50:39,42.805,6.029,4330,1995,192.556,58.892,13.292
2019-07-24T11:53:39,42.805,6.029,4330,1995,192.633,58.913,13.290
2019-07-24T11:56:39,42.805,6.029,4330,1995,192.657,58.922,13.291
2019-07-24T11:59:39,42.805,6.029,4330,1995,192.615,58.909,13.291
2019-07-24T12:02:39,42.805,6.029,4330,1995,192.604,58.905,13.291
2019-07-24T12:05:39,42.805,6.029,4330,1995,192.616,58.907,13.290
2019-07-24T12:08:39,42.805,6.029,4330,1995,192.498,58.873,13.291
2019-07-24T12:11:39,42.805,6.029,4330,1995,192.569,58.893,13.290
2019-07-24T12:14:39,42.805,6.029,4330,1995,192.561,58.891,13.291
2019-07-24T12:17:39,42.805,6.029,4330,1995,192.377,58.835,13.291
2019-07-24T12:20:39,42.805,6.029,4330,1995,192.409,58.843,13.289
2019-07-24T12:23:39,42.805,6.029,4330,1995,192.425,58.850,13.291
2019-07-24T12:26:39,42.805,6.029,4330,1995,192.563,58.891,13.290
2019-07-24T12:29:39,42.805,6.029,4330,1995,192.631,58.912,13.290
2019-07-24T12:32:39,42.805,6.029,4330,1995,192.537,58.882,13.289
2019-07-24T12:35:39,42.805,6.029,4330,1995,192.537,58.883,13.290
2019-07-24T12:41:39,42.805,6.029,4330,1995,192.452,58.856,13.289
2019-07-24T12:44:39,42.805,6.029,4330,1995,192.469,58.865,13.292
2019-07-24T12:47:39,42.805,6.029,4330,1995,192.433,58.854,13.292
2019-07-24T12:50:39,42.805,6.029,4330,1995,192.460,58.861,13.291
2019-07-24T12:53:39,42.805,6.029,4330,1995,192.374,58.834,13.291
2019-07-24T12:56:39,42.805,6.029,4330,1995,192.405,58.845,13.292
2019-07-24T12:59:39,42.805,6.029,4330,1995,192.387,58.838,13.291
2019-07-24T13:02:39,42.805,6.029,4330,1995,192.440,58.855,13.291
2019-07-24T13:05:39,42.805,6.029,4330,1995,192.384,58.838,13.292
2019-07-24T13:08:39,42.805,6.029,4330,1995,192.384,58.837,13.291
2019-07-24T13:11:39,42.805,6.029,4330,1995,192.286,58.806,13.290
2019-07-24T13:14:39,42.805,6.029,4330,1995,192.338,58.823,13.291
2019-07-24T13:17:39,42.805,6.029,4330,1995,192.371,58.832,13.289
2019-07-24T13:20:39,42.805,6.029,4330,1995,192.396,58.840,13.290
2019-07-24T13:23:39,42.805,6.029,4330,1995,192.315,58.815,13.290
2019-07-24T13:26:39,42.805,6.029,4330,1995,192.383,58.836,13.290
2019-07-24T13:29:39,42.805,6.029,4330,1995,192.397,58.841,13.290
2019-07-24T13:32:39,42.805,6.029,4330,1995,192.272,58.802,13.290
2019-07-24T13:35:39,42.805,6.029,4330,1995,192.273,58.803,13.290
2019-07-24T13:38:39,42.805,6.029,4330,1995,192.339,58.823,13.290
2019-07-24T13:41:39,42.805,6.029,4330,1995,192.224,58.788,13.290
2019-07-24T13:44:39,42.805,6.029,4330,1995,192.252,58.795,13.289
2019-07-24T13:47:39,42.805,6.029,4330,1995,192.282,58.805,13.290
2019-07-24T13:50:39,42.805,6.029,4330,1995,192.264,58.799,13.289
2019-07-24T13:53:39,42.805,6.029,4330,1995,192.315,58.815,13.290
2019-07-24T13:56:39,42.805,6.029,4330,1995,192.348,58.826,13.290
2019-07-24T13:59:39,42.805,6.029,4330,1995,192.252,58.797,13.290
2019-07-24T14:02:39,42.805,6.029,4330,1995,192.322,58.818,13.291
2019-07-24T14:05:39,42.805,6.029,4330,1995,192.316,58.815,13.290
2019-07-24T14:08:39,42.805,6.029,4330,1995,192.339,58.823,13.290
2019-07-24T14:11:39,42.805,6.029,4330,1995,192.395,58.839,13.290
2019-07-24T14:14:39,42.805,6.029,4330,1995,192.300,58.811,13.290
2019-07-24T14:17:39,42.805,6.029,4330,1995,192.309,58.813,13.290
2019-07-24T14:20:39,42.805,6.029,4330,1995,192.335,58.820,13.289
2019-07-24T14:23:39,42.805,6.029,4330,1995,192.335,58.822,13.290
2019-07-24T14:26:39,42.805,6.029,4330,1995,192.264,58.802,13.292
2019-07-24T14:29:39,42.805,6.029,4330,1995,192.232,58.792,13.291
2019-07-24T14:32:39,42.805,6.029,4330,1995,192.269,58.802,13.290
2019-07-24T14:35:39,42.805,6.029,4330,1995,192.318,58.817,13.291
2019-07-24T14:38:39,42.805,6.029,4330,1995,192.234,58.792,13.291
2019-07-24T14:41:39,42.805,6.029,4330,1995,192.281,58.806,13.291
2019-07-24T14:44:39,42.805,6.029,4330,1995,192.304,58.813,13.290
2019-07-24T14:47:39,42.805,6.029,4330,1995,192.320,58.817,13.290
2019-07-24T14:50:39,42.805,6.029,4330,1995,192.330,58.820,13.290
2019-07-24T14:53:39,42.805,6.029,4330,1995,192.335,58.822,13.291
2019-07-24T14:56:39,42.805,6.029,4330,1995,192.344,58.825,13.290
2019-07-24T14:59:39,42.805,6.029,4330,1995,192.254,58.800,13.292
2019-07-24T15:02:39,42.805,6.029,4330,1995,192.293,58.810,13.291
2019-07-24T15:05:39,42.805,6.029,4330,1995,192.295,58.810,13.291
2019-07-24T15:08:39,42.805,6.029,4330,1995,192.339,58.823,13.290
2019-07-24T15:17:39,42.805,6.029,4330,1995,192.338,58.819,13.288
2019-07-24T15:20:39,42.805,6.029,4330,1995,192.329,58.819,13.290
2019-07-24T15:23:39,42.805,6.029,4330,1995,192.335,58.821,13.289
2019-07-24T15:26:39,42.805,6.029,4330,1995,192.334,58.822,13.290
2019-07-24T15:29:39,42.805,6.029,4330,1995,192.364,58.832,13.291
2019-07-24T15:32:39,42.805,6.029,4330,1995,192.301,58.811,13.290
2019-07-24T15:35:39,42.805,6.029,4330,1995,192.392,58.839,13.291
2019-07-24T15:38:39,42.805,6.029,4330,1995,192.312,58.815,13.290
2019-07-24T15:41:39,42.805,6.029,4330,1995,192.322,58.817,13.290
2019-07-24T15:44:39,42.805,6.029,4330,1995,192.370,58.833,13.291
2019-07-24T15:47:39,42.805,6.029,4330,1995,192.312,58.816,13.291
2019-07-24T15:50:39,42.805,6.029,4330,1995,192.295,58.810,13.291
2019-07-24T15:53:39,42.805,6.029,4330,1995,192.265,58.801,13.291
2019-07-24T15:56:39,42.805,6.029,4330,1995,192.277,58.805,13.291
2019-07-24T15:59:39,42.805,6.029,4330,1995,192.250,58.797,13.291
2019-07-24T16:02:39,42.805,6.029,4330,1995,192.220,58.788,13.291
2019-07-24T16:05:39,42.805,6.029,4330,1995,192.259,58.800,13.292
2019-07-24T16:08:39,42.805,6.029,4330,1995,192.275,58.805,13.292
2019-07-24T16:11:38,42.805,6.029,4330,1995,192.266,58.800,13.290
2019-07-24T16:14:38,42.805,6.029,4330,1995,192.304,58.814,13.291
2019-07-24T16:17:38,42.805,6.029,4330,1995,192.303,58.815,13.293
2019-07-24T16:20:38,42.805,6.029,4330,1995,192.223,58.789,13.292
2019-07-24T16:23:38,42.805,6.029,4330,1995,192.352,58.827,13.290
2019-07-24T16:26:38,42.805,6.029,4330,1995,192.197,58.781,13.291
2019-07-24T16:29:38,42.805,6.029,4330,1995,192.302,58.814,13.292
2019-07-24T16:32:38,42.805,6.029,4330,1995,192.300,58.811,13.290
2019-07-24T16:35:38,42.805,6.029,4330,1995,192.329,58.819,13.289
2019-07-24T16:38:38,42.805,6.029,4330,1995,192.296,58.810,13.290
2019-07-24T16:41:38,42.805,6.029,4330,1995,192.379,58.834,13.290
2019-07-24T16:44:38,42.805,6.029,4330,1995,192.346,58.825,13.290
2019-07-24T16:47:38,42.805,6.029,4330,1995,192.285,58.806,13.290
2019-07-24T16:50:38,42.805,6.029,4330,1995,192.194,58.779,13.290
2019-07-24T16:53:38,42.805,6.029,4330,1995,192.212,58.783,13.289
2019-07-24T16:56:38,42.805,6.029,4330,1995,192.293,58.807,13.289
2019-07-24T16:59:38,42.805,6.029,4330,1995,192.264,58.798,13.289
2019-07-24T17:02:38,42.805,6.029,4330,1995,192.278,58.803,13.289
2019-07-24T17:05:38,42.805,6.029,4330,1995,192.287,58.807,13.290
2019-07-24T17:08:38,42.805,6.029,4330,1995,192.329,58.819,13.289
2019-07-24T17:11:38,42.805,6.029,4330,1995,192.350,58.825,13.289
2019-07-24T17:14:38,42.805,6.029,4330,1995,192.341,58.822,13.289
2019-07-24T17:17:38,42.805,6.029,4330,1995,192.320,58.817,13.290
2019-07-24T17:20:38,42.805,6.029,4330,1995,192.397,58.839,13.289
2019-07-24T17:23:38,42.805,6.029,4330,1995,192.305,58.811,13.290
2019-07-24T17:26:38,42.805,6.029,4330,1995,192.320,58.815,13.289
2019-07-24T17:29:38,42.805,6.029,4330,1995,192.326,58.819,13.290
2019-07-24T17:32:38,42.805,6.029,4330,1995,192.378,58.834,13.290
2019-07-24T17:35:38,42.805,6.029,4330,1995,192.350,58.826,13.290
2019-07-24T17:38:38,42.805,6.029,4330,1995,192.347,58.824,13.289
2019-07-24T17:41:38,42.805,6.029,4330,1995,192.327,58.819,13.290
2019-07-24T17:44:38,42.805,6.029,4330,1995,192.291,58.808,13.290
2019-07-24T17:50:38,42.805,6.029,4330,1995,192.196,58.776,13.288
2019-07-24T17:53:38,42.805,6.029,4330,1995,192.202,58.778,13.288
2019-07-24T17:56:38,42.805,6.029,4330,1995,192.188,58.775,13.289
2019-07-24T17:59:38,42.805,6.029,4330,1995,192.239,58.792,13.290
2019-07-24T18:02:38,42.805,6.029,4330,1995,192.282,58.805,13.290
2019-07-24T18:05:38,42.805,6.029,4330,1995,192.275,58.802,13.289
2019-07-24T18:08:38,42.805,6.029,4330,1995,192.268,58.800,13.289
2019-07-24T18:11:38,42.805,6.029,4330,1995,192.373,58.831,13.289
2019-07-24T18:14:38,42.805,6.029,4330,1995,192.310,58.813,13.290
2019-07-24T18:17:38,42.805,6.029,4330,1995,192.314,58.815,13.290
2019-07-24T18:20:38,42.805,6.029,4330,1995,192.259,58.798,13.290
2019-07-24T18:23:38,42.805,6.029,4330,1995,192.301,58.810,13.289
2019-07-24T18:26:38,42.805,6.029,4330,1995,192.365,58.830,13.289
2019-07-24T18:29:38,42.805,6.029,4330,1995,192.390,58.838,13.290
2019-07-24T18:32:38,42.805,6.029,4330,1995,192.375,58.834,13.290
2019-07-24T18:35:38,42.805,6.029,4330,1995,192.395,58.840,13.290